Hourly Data Report for October 20, 2016

All times are specified in Local Standard Time (LST). Add 1 hour to adjust for Daylight Saving Time where and when it is observed.

IQALUIT CLIMATE
NUNAVUT

63°44'50.000" N
68°32'40.000" W
33.50 m
2402592
71321
XFB

Download Data

Hourly Data (October 2016)
Hourly Data Report for October 20, 2016
Temp Definition
°C
Dew Point Temp Definition
°C
Rel Hum Definition
%
Wind Dir Definition
10's deg

Wind Spd Definition
km/h
Visibility Definition
km
Stn Press Definition
kPa
Hmdx Definition


Wind Chill Definition


Weather Definition


TIME
00:00 -15.1 -17.2 84 32 11   101.82   -22 LegendNANA
01:00 -12.6 -14.3 87 33 15   101.84   -20 LegendNANA
02:00 -11.1 -13.0 86 33 14   101.83   -18 LegendNANA
03:00 -10.5 -12.1 88 28 9   101.83   -15 LegendNANA
04:00 -9.9 -11.5 88 22 2   101.82   -11 LegendNANA
05:00 -9.4 -10.9 89 24 7   101.81   -13 LegendNANA
06:00 -8.8 -10.1 90 6 5   101.76   -12 LegendNANA
07:00 -7.8 -9.6 87 9 3   101.69   -9 LegendNANA
08:00 -6.9 -9.4 83 1 3   101.67   -8 LegendNANA
09:00 -6.5 -8.9 83 1 4   101.62   -8 LegendNANA
10:00 -4.7 -8.6 75 29 6   101.54   -7 LegendNANA
11:00 -3.6 -8.2 70 26 21   101.50   -10 LegendNANA
12:00 -3.5 -7.8 72 27 21   101.48   -10 LegendNANA
13:00 -3.2 -7.8 71 26 27   101.46   -10 LegendNANA
14:00 -3.4 -8.1 70 24 22   101.42   -10 LegendNANA
15:00 -3.3 -7.8 71 25 20   101.38   -9 LegendNANA
16:00 -3.2 -7.3 73 22 14   101.36   -8 LegendNANA
17:00 -2.5 -6.5 74 23 22   101.30   -9 LegendNANA
18:00 -2.0 -6.3 72 25 31   101.25   -9 LegendNANA
19:00 -1.6 -5.8 73 25 31   101.22   -9 LegendNANA
20:00 -1.5 -5.4 74 26 39   101.15   -9 LegendNANA
21:00 -1.2 -5.2 75 26 41   101.11   -9 LegendNANA
22:00 -1.1 -4.8 76 26 36   101.07   -9 LegendNANA
23:00 -0.5 -4.2 76 27 35   101.03   -8 LegendNANA

Notes on Data Quality.

Legend

  • E = Estimated
  • M = Missing
  • NA = Not Available
  • ‡ = Partner data that is not subject to review by the National Climate Archives
Date modified: